Other Public Products
Issued by NWS Grand Forks, ND

Home | Current Version | Previous Version | Graphics & Text | Print | Product List | Glossary On
Versions: 1 2 3 4 5 6 7 8 9 10 11 12 13 14 15 16 17 18 19 20 21 22 23 24 25 26 27 28 29 30 31 32 33 34 35 36 37 38 39 40 41 42 43 44 45 46 47 48 49 50
000
FPUS83 KFGF 031231
OPUFGF
PRAIRIE TO PINES WEATHER ROUNDUP
NATIONAL WEATHER SERVICE EASTERN NORTH DAKOTA/GRAND FORKS ND
600 AM CST SAT DEC 03 2016

 **SATELLITE DATA USED TO AUGMENT SKY COVER AT AUTOMATED STATIONS**
 *****  WEATHER ACROSS EASTERN NORTH DAKOTA  *****

CITY           SKY/WX    TMP DP  RH WIND       PRES   REMARKS
GRAND FORKS    CLOUDY    27  19  72 S14       30.18F WCI  16
6HR MIN TEMP:  27; 6HR MAX TEMP:  31;

GRAND FORKS AF CLOUDY    26  20  77 S14       30.18F WCI  14
GRAND CITY NWS   N/A     27 N/A N/A S10         N/A  WCI  17
BUXTON           N/A     42  38  87 S10         N/A
DEVILS LAKE    CLOUDY    26  24  92 S15       30.09F WCI  14
6HR MIN TEMP:  25; 6HR MAX TEMP:  27;

FARGO          MOCLDY    26  18  71 S12       30.23F WCI  16
6HR MIN TEMP:  25; 6HR MAX TEMP:  27;

WAHPETON ARPT  CLOUDY    27  19  74 S7        30.25F WCI  19
$$

 *****  WEATHER ACROSS CENTRAL AND WESTERN NORTH DAKOTA  *****

CITY           SKY/WX    TMP DP  RH WIND       PRES   REMARKS
JAMESTOWN      CLOUDY    26  23  88 S14       30.12F WCI  14
6HR MIN TEMP:  23; 6HR MAX TEMP:  26;

BISMARCK       MOCLDY    23  22  96 SE13      30.05F WCI  11
6HR MIN TEMP:  15; 6HR MAX TEMP:  27;

MINOT          CLEAR     25  22  88 S8        29.94F WCI  16
6HR MIN TEMP:  19; 6HR MAX TEMP:  26;

MINOT AFB      CLEAR     22  19  91 S12       29.93F WCI  10
6HR MIN TEMP:  16; 6HR MAX TEMP:  24;

GARRISON         N/A     25  24  96 S5        29.97F WCI  19
6HR MIN TEMP:  23; 6HR MAX TEMP:  27;

WILLISTON      CLEAR     22  18  85 S3        29.87F
6HR MIN TEMP:  19; 6HR MAX TEMP:  24;

DICKINSON      CLEAR     17  14  88 S13       29.89F WCI   4
6HR MIN TEMP:  14; 6HR MAX TEMP:  19;

HETTINGER      CLEAR     21  18  88 SE6       29.95F WCI  13
6HR MIN TEMP:  19; 6HR MAX TEMP:  24;

$$

 *****  OTHER OBSERVATIONS NORTHEAST NORTH DAKOTA  *****

CITY           SKY/WX    TMP DP  RH WIND       PRES   REMARKS
WALHALLA         N/A     25  25 100 S13       30.11F WCI  13
LANGDON        CLOUDY    25  25 100 S23       30.07S WCI  10
CAVALIER         N/A     27  23  86 S17G23    30.14S WCI  14
GRAFTON        CLOUDY    27  23  86 S16       30.19F WCI  14
CANDO          CLOUDY    27  27 100 S17G23    30.08S WCI  14
FORT TOTTEN      N/A     26  26 100 S9        29.95S WCI  17
ROLLA          CLOUDY    25  25 100 S16       30.02F WCI  12
RUGBY            N/A     23  23 100 S15G21    30.01F WCI  10
 ***** THE ABOVE OBSERVATIONS ARE NON NWS ARE NOT QUALITY
        CONTROLLED AND MAY MIS-REPORT RAIN FOR SNOW...
$$

 *****  OTHER OBSERVATIONS SOUTHEAST NORTH DAKOTA *****

CITY           SKY/WX    TMP DP  RH WIND       PRES   REMARKS
COOPERSTOWN    CLOUDY    27  25  93 S13       30.14F WCI  16
VALLEY CITY    CLOUDY    25  25 100 S9        30.18S WCI  15
OAKES          NOT AVBL
GWINNER        CLOUDY    30  27  86 S13       30.20F WCI  20
SHEYENNE NWR     N/A     26  20  79 S7        29.95S WCI  18
BUFFALO          N/A     25  18  74 E10         N/A  WCI  15
WYNDMERE         N/A     27  21  80 S8          N/A  WCI  18
 ***** THE ABOVE OBSERVATIONS ARE NON NWS ARE NOT QUALITY
       CONTROLLED AND MAY MIS-REPORT RAIN FOR SNOW...
$$

  *****  WEATHER ACROSS NORTHERN MINNESOTA  *****

CITY           SKY/WX    TMP DP  RH WIND       PRES   REMARKS
FLAG ISLAND    CLOUDY    27  23  86 S3        30.18F
WARROAD        CLOUDY    27  23  86 S5        30.20S WCI  21
ROSEAU         CLOUDY    28  21  74 S9        30.19S WCI  20
HALLOCK        CLOUDY    28  25  86 S16       30.17S WCI  17
THF RVR FALLS  CLOUDY    25  20  81 S16       30.21F WCI  12
6HR MIN TEMP:  25; 6HR MAX TEMP:  28;

HALSTAD          N/A     25  19  78 S12         N/A  WCI  15
FOSSTON        CLOUDY    21  18  86 S10       30.22S WCI  10
BAUDETTE       CLOUDY    25  21  85 S5        30.20F WCI  19
6HR MIN TEMP:  23; 6HR MAX TEMP:  25;

WASKISH        CLOUDY    25  23  93 S5        30.22S WCI  19
CROOKSTON      CLOUDY    27  19  74 S14       30.22S WCI  15
$$
  *****  WEATHER ACROSS CENTRAL AND WEST MINNESOTA  *****

CITY           SKY/WX    TMP DP  RH WIND       PRES   REMARKS
BEMIDJI        CLOUDY    24  19  81 S5        30.21F WCI  18
PARK RAPIDS    CLOUDY    25  16  68 S8        30.22S WCI  16
6HR MIN TEMP:  24; 6HR MAX TEMP:  26;

WADENA         CLOUDY    23  18  80 S3        30.23F
DETROIT LAKES  CLOUDY    27  21  80 S9        30.22F WCI  17
MOORHEAD       CLOUDY    25  18  74 S9        30.24S WCI  15
FERGUS FALLS   CLOUDY    25  18  74 SW8       30.29F WCI  16
ELBOW LAKE     CLOUDY    24  19  80 S8        30.26F WCI  15
MORRIS MN      CLOUDY    27  19  74 S7        30.26S WCI  19
STAPLES        CLOUDY    23  18  80 CALM      30.25F
WHEATON        CLOUDY   N/A N/A N/A S5        30.28S
$$
  *****  WEATHER ELSEWHERE ACROSS MINNESOTA  *****

CITY           SKY/WX    TMP DP  RH WIND       PRES   REMARKS
DULUTH         CLOUDY    27  24  89 NW5       30.23R WCI  22
6HR MIN TEMP:  27; 6HR MAX TEMP:  27;

INTRNTL FALLS  CLOUDY    24  18  77 CALM      30.22S
6HR MIN TEMP:  22; 6HR MAX TEMP:  24;

ELY            CLOUDY    21  21 100 CALM      30.23R FOG
CLOQUET        CLOUDY    27  23  86 W3        30.25R
BRAINERD       CLOUDY    25  19  78 SW8       30.26S WCI  16
6HR MIN TEMP:  25; 6HR MAX TEMP:  26;

HIBBING        CLOUDY    23  20  88 CALM      30.24S
6HR MIN TEMP:  23; 6HR MAX TEMP:  24;

ALEXANDRIA     CLOUDY    24  19  81 S7        30.26S WCI  16
6HR MIN TEMP:  24; 6HR MAX TEMP:  25;

SAINT CLOUD    CLOUDY    28  21  75 S3        30.27F
6HR MIN TEMP:  27; 6HR MAX TEMP:  29;

MINNEAPOLIS    CLOUDY    29  20  69 W7        30.31S WCI  22
6HR MIN TEMP:  29; 6HR MAX TEMP:  30;

$$

  *****  WEATHER ACROSS SOUTH DAKOTA  *****

CITY           SKY/WX    TMP DP  RH WIND       PRES   REMARKS
SIOUX FALLS    PTCLDY    28  26  92 SE6       30.25F WCI  22
6HR MIN TEMP:  25; 6HR MAX TEMP:  31;

BROOKINGS      CLOUDY    26  23  88 SE8       30.22F WCI  18
WATERTOWN      CLOUDY    22  20  92 S8        30.20F WCI  12
6HR MIN TEMP:  18; 6HR MAX TEMP:  24;

HURON          CLEAR     24  23  96 SE9       30.19F WCI  14
6HR MIN TEMP:  24; 6HR MAX TEMP:  29;

SISSETON         N/A     22  18  85 S5        30.24S WCI  16
ABERDEEN       PTCLDY    26  22  84 S12       30.19F WCI  16
6HR MIN TEMP:  25; 6HR MAX TEMP:  28;

MITCHELL       CLEAR     27  25  92 SE10      30.21F WCI  17
PIERRE         CLOUDY    22  20  92 SE9       30.08F WCI  12
6HR MIN TEMP:  17; 6HR MAX TEMP:  22;

MOBRIDGE       CLOUDY    25  22  88 S20       30.04F FOG     WCI  11
RAPID CITY     CLEAR     21  16  81 VRB3      29.93F
6HR MIN TEMP:  17; 6HR MAX TEMP:  22;

$$

  *****  SOME WEATHER IN NEARBY STATES *****

CITY           SKY/WX    TMP DP  RH WIND       PRES   REMARKS
GLASGOW MT     CLOUDY    27  25  92 VRB6      29.78F WCI  20
6HR MIN TEMP:  21; 6HR MAX TEMP:  29; 6HR PCP:  0.02;

GREAT FALLS MT CLOUDY    32  22  66 SW17      29.82R WCI  21
6HR MIN TEMP:  29; 6HR MAX TEMP:  33;

CHEYENNE WY    CLOUDY    16   7  67 W14       29.97F WCI   2
6HR MIN TEMP:  16; 6HR MAX TEMP:  24;

SCOTTSBLUFF NE CLEAR     20  16  84 CALM      30.04F
6HR MIN TEMP:  20; 6HR MAX TEMP:  32;

OMAHA NE       FOG       25  20  81 S5        30.31S VSB 3/4 WCI  19
6HR MIN TEMP:  23; 6HR MAX TEMP:  29;

DES MOINES IA  CLOUDY    36  28  73 W3        30.34F
6HR MIN TEMP:  36; 6HR MAX TEMP:  37;

DAVENPORT IA   CLOUDY    32  24  72 NW13      30.37S WCI  22
6HR MIN TEMP:  31; 6HR MAX TEMP:  32;

CHICAGO IL     CLOUDY    32  22  66 W6        30.34S
6HR MIN TEMP:  32; 6HR MAX TEMP:  34;

EAU CLAIRE WI  CLOUDY    29  24  82 SW5       30.29S WCI  24
6HR MIN TEMP:  29; 6HR MAX TEMP:  31;

LA CROSSE WI   CLOUDY    32  22  66 W13       30.34S WCI  22
6HR MIN TEMP:  31; 6HR MAX TEMP:  33;

$$

  *****  SOME NATIONAL WEATHER *****

CITY           SKY/WX    TMP DP  RH WIND       PRES   REMARKS
LA GUARDIA NY  PTCLDY    44  28  53 NW17      29.98R
6HR MIN TEMP:  43; 6HR MAX TEMP:  46;                              C1F1C2F2C3F3C4F4C5F5C6F6C7F7C8F8C9F9CaFaCbFbCcFcCdFdCe!



USA.gov is the U.S. government's official web portal to all federal, state and local government web resources and services.